Location: Killam
(52.7910°N, 111.8608°W)
Time: 21:38:52
(UTC+00:00)

A-11 Canister half - Pass Details

Date: 23 February 2026
Orbit: 1525 x 1683 km, 47.3° (Epoch: 9 March)

Event Time Altitude Azimuth Distance (km) Brightness Sun altitude
Rises 01:33:34 0° 263° (W) 4,710 14.4 -6.8°
Reaches altitude 10° 01:36:40 10° 260° (W) 3,713 12.8 -7.2°
Maximum altitude 01:45:49 63° 183° (S) 1,670 9.3 -8.6°
Drops below altitude 10° 01:54:57 10° 105° (ESE) 3,700 10.4 -10.0°
Enters shadow 01:55:04 10° 105° (ESE) 3,737 10.4 -10.0°
Sets 01:58:01 0° 102° (ESE) 4,692 - -10.4°
